Regional Weather Roundup
Issued by NWS Kansas City/Pleasant Hill, MO

Home | Current Version | Previous Version | Graphics & Text | Print | Product List | Glossary Off
Versions: 1 2 3 4 5 6 7 8 9 10 11 12 13 14 15 16 17 18 19 20 21 22 23 24 25 26 27 28

000
ASUS43 KEAX 250310
RWREAX

WEATHER ROUNDUP FOR EASTERN KANSAS AND NORTHWEST MISSOURI
NATIONAL WEATHER SERVICE KANSAS CITY/PLEASANT HILL MO
1000 PM CDT TUE APR 24 2018

KSZ040-057-103>105-MOZ028-029-037-043-250400-
...KANSAS CITY METROPOLITAN AREA...

CITY           SKY/WX    TMP DP  RH WIND       PRES   REMARKS
K.C. INTL      CLOUDY    60  45  57 NW22G28   30.13S
K.C. DOWNTOWN  CLOUDY    63  45  51 NW16G26   30.12R
LEES SUMMIT    CLOUDY    62  46  55 MISG      30.12R
OLATHE - IXD   CLOUDY    60  46  59 N21G32    30.14R
OLATHE - OJC   CLOUDY    60  46  59 N17G31    30.12R
LAWRENCE       CLOUDY    60  46  59 N15G26    30.14R

$$

MOZ001>008-011>017-020>025-030>033-038>040-044>046-053-054-250400-
...NORTHERN AND CENTRAL MISSOURI...

CITY           SKY/WX    TMP DP  RH WIND       PRES   REMARKS
ST. JOSEPH     CLOUDY    59  48  67 NW24G37   30.14R
MOSBY          CLOUDY    63  45  51 NW15G25   30.12R
WARRENSBURG    CLOUDY    64  41  42 NW13G21   30.08R
WHITEMAN AFB   NOT AVBL
CLINTON        MOCLDY    61  43  51 CALM      30.08R
SEDALIA        PTCLDY    65  38  36 NW5       30.07R
WARSAW         NOT AVBL
CHILLICOTHE      N/A     59  42  53 CALM      30.07R
KIRKSVILLE     CLOUDY    63  39  41 N9        30.07R

$$

MOZ041-047>049-056>058-063>065-088>090-097-250400-
...EASTERN AND SOUTHERN MISSOURI...

CITY           SKY/WX    TMP DP  RH WIND       PRES   REMARKS
ST. LOUIS INTL PTCLDY    59  47  64 SW3       30.00R
SPIRIT OF STL  CLEAR     55  48  77 W3        30.00R
COLUMBIA       PTCLDY    63  34  33 NW5       30.04R
JEFFERSON CITY CLOUDY    60  43  53 W3        30.03R
ROLLA          CLEAR     55  45  68 CALM      30.05R
OSAGE BEACH    CLEAR     58  46  64 CALM      30.06R
SPRINGFIELD    CLOUDY    57  40  52 W3        30.07R
BRANSON        PTCLDY    59  41  51 CALM      30.09R
JOPLIN         CLOUDY    61  42  49 CALM      30.09R
WEST PLAINS    CLEAR     59  46  62 NW5       30.07R

$$

IAZ060-094-KSZ022-034>040-054-083-096-NEZ052-066-093-250400-
...KANSAS...SOUTHEAST NEBRASKA AND IOWA...

CITY           SKY/WX    TMP DP  RH WIND       PRES   REMARKS
TOPEKA         CLOUDY    58  48  69 N9G25     30.14R
MANHATTAN      CLOUDY    54  48  80 N5        30.19R
EMPORIA        CLOUDY    55  46  71 NW10      30.16R
CHANUTE        PTCLDY    61  45  55 N12       30.12R
WICHITA        CLOUDY    53  47  79 NW18      30.20R
OMAHA          LGT RAIN  52  47  83 N14       30.19S
LINCOLN        CLOUDY    50  48  93 N7        30.22R
FALLS CITY     CLOUDY    55  48  77 N10       30.16F
LAMONI         CLOUDY    63  43  48 N16       30.10R
DES MOINES     CLOUDY    58  42  55 N15G22    30.14R

$$





USA.gov is the U.S. government's official web portal to all federal, state and local government web resources and services.